Tracking 19574 objects as of 16-Feb-2019
HD Live streaming from Space Station
objects crossing your sky now

O3B FM5

Track O3B FM5 now!
10-day predictions
O3B FM5 is classified as:


NORAD ID: 39188
Int'l Code: 2013-031A
Perigee: 8,070.1 km
Apogee: 8,078.0 km
Inclination: 0.0 °
Period: 288.0 minutes
Semi major axis: 14445 km
RCS: Unknown
Launch date: June 25, 2013
Source: O3b Networks (O3B)
Launch site: FRENCH GUIANA (FRGUI)

O3b satellites will reach customers across the planet between 45 degrees north and south latitude. O3b offers the benefits of fiber-optic lines without the costs to maintain them.
aabbcc
Your satellite tracking list
Your tracking list is empty




NASA's NSSDC Master Catalog

Two Line Element Set (TLE):
1 39188U 13031A   19046.56836747 -.00000018 +00000-0 +00000-0 0  9993
2 39188 000.0481 028.4605 0002739 289.5465 041.9678 05.00064007103145
Source of the keplerian elements: AFSPC